Regional Weather Roundup
Issued by NWS

Home | Current Version | Previous Version | Graphics & Text | Print | Product List | Glossary On
Versions: 1 2 3 4 5 6 7 8 9 10 11 12 13 14 15 16 17 18 19 20 21 22 23 24 25 26 27
000
ASUS45 KBOU 290907
RWRCO

WEATHER ROUNDUP FOR COLORADO
NATIONAL WEATHER SERVICE DENVER/BOULDER CO
300 AM MDT SUN MAY 29 2016

NOTE: "FAIR" INDICATES FEW OR NO CLOUDS BELOW 12000 FEET WITH NO
SIGNIFICANT WEATHER AND/OR OBSTRUCTIONS TO VISIBILITY.

COZ001>005-013-030-031-291000-
...NORTHWEST COLORADO...

CITY           SKY/WX    TMP DP  RH WIND       PRES   REMARKS
CRAIG          FAIR      36  33  89 CALM      30.20S
HAYDEN         FAIR      43  34  70 E9        30.21S
MEEKER         FAIR      40  34  79 E3        30.20F
MOUNT WERNER   NOT AVBL
STEAMBOAT SPGS FAIR      38  34  88 CALM      30.23S
WALDEN         NOT AVBL
$$

COZ006>008-011-291000-
...WEST CENTRAL VALLEYS...

CITY           SKY/WX    TMP DP  RH WIND       PRES   REMARKS
GRAND JUNCTION FAIR      54  36  50 E7        30.11R
MONTROSE       FAIR      51  32  48 SE12      30.18S
EAGLE          FAIR      39  36  87 CALM      30.28S
RIFLE          FAIR      44  34  67 E6        30.18R
DELTA          FAIR      56  34  43 NE5       30.15R
NUCLA          FAIR      52  32  46 E9        30.19S
$$

COZ017>023-064>068-291000-
...SOUTHWEST COLORADO...

CITY           SKY/WX    TMP DP  RH WIND       PRES   REMARKS
DURANGO        FAIR      43  30  60 CALM      30.18S
CORTEZ         FAIR      40  30  67 E6        30.14S
PAGOSA SPRINGS MOCLDY    42  31  63 CALM      30.25S
TELLURIDE      FAIR      41  29  60 SE8       30.33S
WOLF CREEK PAS CLOUDY    36  18  48 SW6       30.49S
$$

COZ009-010-012-014-032>034-037-058>063-291000-
...CENTRAL COLORADO...

CITY           SKY/WX    TMP DP  RH WIND       PRES   REMARKS
ASPEN          FAIR      35  29  78 SW5       30.27S WCI  31
BUENA VISTA    FAIR      39  28  64 NW6       30.31S
COPPER MTN     NOT AVBL
BERTHOUD PASS  FAIR      30  19  64 NW6       30.47S WCI  24
COTTONWOOD PAS FAIR      45  25  45 W5        30.38S
GUNNISON       FAIR      39  27  60 N5        30.31S
KREMMLING      FAIR      34  32  93 CALM      30.31R
LEADVILLE      FAIR      28  23  81 CALM      30.37S
SALIDA         FAIR      44  32  63 W3        30.37S
SUNLIGHT       FAIR      39  30  70 CALM      30.43S
WILKERSON PASS FAIR      36  27  69 S6        30.47S
$$

COZ069>075-291000-
...SAN LUIS VALLEY/SANGRE DE CRISTO MOUNTAINS...

CITY           SKY/WX    TMP DP  RH WIND       PRES   REMARKS
ALAMOSA        MOCLDY    41  38  89 CALM      30.26F
LA VETA PASS   MOCLDY    43  30  61 NE7       30.39S
SAGUACHE       MOCLDY    45  32  61 NW12G20   30.29S
$$

COZ035-036-038>040-291000-
...NORTHERN COLORADO FRONT RANGE...

CITY           SKY/WX    TMP DP  RH WIND       PRES   REMARKS
DENVER INTL AP FAIR      49  41  74 SW10      30.14F
DMNS CITY PARK   N/A     51  40  66 SE10      30.14F
AURORA         PTCLDY    47  41  77 S9        30.16F
FRONT RANGE AP NOT AVBL
ERIE MUNI ARPT FAIR      42  39  89 S3        30.14S
BOULDER MUN AP FAIR      54  34  47 CALM      30.14S
CENTENNIAL     FAIR      47  38  71 S7        30.17S
BROOMFIELD     FAIR      50  36  57 W8        30.15F
FORT COLLINS   FAIR      50  43  76 CALM      30.14S
LONGMONT       FAIR      45  38  77 CALM      30.16S
$$

COZ041-046-047-076>085-087-088-291000-
...PIKES PEAK/PALMER DIVIDE AND SOUTHERN FOOTHILLS...

CITY           SKY/WX    TMP DP  RH WIND       PRES   REMARKS
COLO. SPRINGS  FAIR      49  39  68 NE6       30.21F
A. F. ACADEMY  FAIR      41  37  87 N7        30.22S
SCHRIEVER AFB  NOT AVBL
ELLICOTT       FAIR     N/A N/A N/A E10       30.19F
FALCON         FAIR      45  37  75 CALM      30.24F
FORT CARSON    FAIR      46  39  77 NW10      30.18F
LIMON          FAIR      41  41 100 N3        30.17F
MONUMENT HILL  FAIR      41  36  81 S9        30.25S
TRINIDAD       FAIR      47  36  65 W9        30.17S
$$

COZ042>045-048>051-090-091-291000-
...NORTHEAST COLORADO...

CITY           SKY/WX    TMP DP  RH WIND       PRES   REMARKS
GREELEY ARPT   FAIR      46  43  87 CALM      30.13F
AKRON          FAIR      52  42  69 S9        30.11F
BURLINGTON     FAIR      52  45  77 S9        30.12R
WRAY           FAIR      55  46  71 CALM      30.10S
STERLING       FAIR      45  43  93 N3        30.09S
HOLYOKE        NOT AVBL
FORT MORGAN    FAIR      51  43  76 W5        30.13R
$$

COZ086-089-092>099-291000-
...SOUTHEAST COLORADO...

CITY           SKY/WX    TMP DP  RH WIND       PRES   REMARKS
PUEBLO         FAIR      52  45  77 W5        30.15S
LA JUNTA       FAIR      56  50  80 E5        30.11R
LAMAR          FAIR      53  47  79 NE5       30.08R
SPRINGFIELD      N/A     59  46  62 S13       30.12F
$$




USA.gov is the U.S. government's official web portal to all federal, state and local government web resources and services.